sat.trackr.live / text

‹ back to catalog

STARLINK-31984

NORAD 60018 · 2024-111C

PAYLOAD ACTIVE UNKNOWN

§ Identity

Operator
Country
US
Launch date
2024-06-08
Launch site
AFETR
Launch vehicle
Mass (kg)
RCS (m²)

Purposes: comms

External: N2YO · Heavens-Above · Gunter

§ Orbital elements

Epoch: 2026-09-21T15:19:58.529568Z

Period
93.85 min
Inclination
53.1571°
Eccentricity
0.0001217
Mean motion
15.34390179 rev/d
Perigee alt
461.9 km
Apogee alt
463.6 km
Semi-major
6,840.9 km
B*
-1.2783e-6
RAAN
244.0832°
Arg perigee
83.8739°
Mean anomaly
276.2403°
Rev number
12,890

§ Raw data

STARLINK-319841 60018U 24111C   26264.63887187 -.00000419  00000+0 -12783-5 0  99932 60018  53.1571 244.0832 0001217  83.8739 276.2403 15.34390179128907

JSON: /api/v1/satellites/60018 · /tle

For live sub-satellite position, see the globe view (requires WebGL).

§ Visibility from observer

Set your observer location to see the next 7 days of passes ≥ 10°. The values pass through the URL so the page stays shareable.

No JS? Fill the form by hand. The geolocation button needs JavaScript.